Tiempo atmosférico en la estación meteorológica de Carballiño, O, Ourense (400 m.)



Fecha
DESCASC
Temp. máxima en grados centígrados (hora)
DESCASC
Temp. mínima en grados centígrados (hora)
DESCASC
Temp. media en grados centígrados
DESCASC
Racha de viento máxima en m/sg (hora)
DESCASC
Velocidad máxima media en intervalos de 10 minutos(hora)
DESCASC
Precipitaciones diarias en mm
DESCASC
Precipitaciones de 00:00 a 06:00 en mm
DESCASC
Precipitaciones de 06:00 a 12:00 en mm
DESCASC
Precipitaciones de 12:00 a 18:00 en mm
DESCASC
Precipitaciones de 18:00 a 24:00 en mm
DESCASC
08-12-2019 13.9 (17:10) 5.3 (23:59) 9.6 6.39 (19:30) 1.39 (19:00) 2.5 0.3 2.2 0 0
07-12-2019 12 (15:50) 2.1 (04:10) 7 1.94 (11:40) 0.28 (11:40) 0 0 0 0 0
06-12-2019 11.3 (15:30) 1.2 (04:00) 6.3 1.67 (15:10) 0 (15:00) 0 0 0 0 0
05-12-2019 12.9 (15:10) -0.6 (-00:0) 6.1 2.78 (13:10) 0.83 (13:10) 0 0 0 0 0
04-12-2019 10.5 (15:20) -2.4 (08:40) 4 2.78 (01:10) 0.83 (00:50) 0 0 0 0 0
03-12-2019 11.1 (15:20) -1.6 (-00:0) 4.8 4.44 (12:50) 1.39 (12:00) 0 0 0 0 0
02-12-2019 12.7 (14:10) 2.5 (00:00) 7.6 10.83 (11:30) 4.72 (11:30) 0 0 0 0 0
01-12-2019 12.4 (12:30) 7.2 (00:00) 9.8 12.22 (21:30) 4.17 (21:10) 12.4 12.3 0.1 0 0
30-11-2019 13.9 (01:50) 8.8 (00:00) 11.3 8.61 (06:40) 3.61 (06:50) 15.1 9.5 1.8 0.2 3.6
29-11-2019 15.6 (15:10) 8.3 (00:00) 12 2.78 (06:20) 0.83 (10:00) 1.9 0 0 0 1.9
28-11-2019 13.7 (18:30) 10.7 (23:59) 12.2 6.39 (05:10) 2.22 (10:10) 7.3 0.8 0.3 5.9 0.3
27-11-2019 11.6 (13:20) 9.6 (00:00) 10.6 6.67 (18:00) 1.39 (14:10) 16.7 5.5 4 4.5 2.7
26-11-2019 14.7 (14:30) 9.9 (00:00) 12.3 12.22 (15:20) 5.28 (17:50) 17.1 2.8 0.1 10.9 3.3
25-11-2019 14.1 (13:30) 11.2 (10:00) 12.7 7.5 (00:20) 2.22 (00:30) 1 0.5 0.3 0.1 0.1
24-11-2019 13.4 (21:30) 3.1 (00:00) 8.2 9.44 (23:59) 2.5 (23:59) 6.6 0 0 2 4.6
23-11-2019 12.4 (13:30) 4.6 (00:00) 8.5 8.89 (00:50) 3.06 (13:40) 3.8 2.1 0.2 1.4 0.1
22-11-2019 12.6 (10:50) 7.2 (00:00) 9.9 14.44 (21:50) 4.72 (22:30) 33.1 6.2 9.1 12.4 5.4
21-11-2019 12.4 (15:00) 2.8 (00:00) 7.6 5.28 (15:30) 1.39 (15:30) 3.4 1.9 1 0.5 0
20-11-2019 9.6 (13:50) 5.5 (23:40) 7.6 5.28 (14:20) 1.11 (15:10) 7.2 0 0 3.7 3.5
19-11-2019 9.4 (15:50) 2.7 (00:00) 6 2.78 (22:10) 1.11 (19:30) 8.3 0 0.6 3.9 3.8
18-11-2019 12.7 (13:00) 2.1 (00:00) 7.4 4.72 (04:00) 1.39 (00:20) 0 0 0 0 0
17-11-2019 12.4 (15:10) 6.2 (00:00) 9.3 6.94 (16:50) 3.06 (13:50) 2.7 0.1 2 0.1 0.5
16-11-2019 9.1 (15:10) 0.4 (00:00) 4.8 4.17 (15:00) 0.83 (15:00) 0 0 0 0 0
15-11-2019 8.8 (14:40) 1.9 (00:00) 5.4 9.44 (15:00) 3.61 (15:00) 7.2 2.5 1.3 2.6 0.8
14-11-2019 9.1 (00:10) 3.8 (00:00) 6.5 17.5 (15:10) 5.56 (15:10) 11.1 1.6 3.7 4.9 0.9
13-11-2019 14 (02:00) 9 (00:00) 11.5 11.39 (23:10) 3.89 (23:20) 4.4 2.6 0.1 0 1.7
12-11-2019 13.6 (23:40) 5.2 (00:00) 9.4 3.89 (23:20) 0.83 (16:50) 19.5 0 0.9 4.7 13.9
11-11-2019 14.5 (15:50) 6 (23:50) 10.3 7.5 (16:30) 2.5 (12:40) 1 0.8 0.2 0 0
10-11-2019 8.9 (15:50) 5.5 (00:00) 7.2 6.94 (11:50) 1.94 (11:50) 9 0.3 1.4 3.4 3.9

Gráficas

Temp. máximas Temp. mínimas Temp. medias Precipitaciones Rachas de viento máximas Velocidades máximas media en intervalos de 10 minutos

Datos horarios

Fecha y hora oficial Temperatura (ºC) Velocidad del viento (km/h) Dirección del viento Racha (km/h) Dirección de racha Precipitación (mm) Presión (hPa) Tendencia (hPa) Humedad (%)
2019-12-09 23:00:00 2.7 0 Calma 5 Nordeste 0 -- -- 94
2019-12-09 22:00:00 3.3 0 Calma -- -- 0 -- -- 93
2019-12-09 21:00:00 4.1 0 Calma 2 Noroeste 0 -- -- 92
2019-12-09 20:00:00 4.9 0 Calma -- -- 0 -- -- 90
2019-12-09 19:00:00 6.6 0 Calma -- -- 0 -- -- 87
2019-12-09 18:00:00 8.3 0 Calma 0 Calma 0 -- -- 82
2019-12-09 17:00:00 9.8 0 Calma -- -- 0 -- -- 78
2019-12-09 16:00:00 9.7 0 Calma -- -- 0 -- -- 79
2019-12-09 15:00:00 9.5 0 Calma 6 Sudeste 0 -- -- 79
2019-12-09 14:00:00 9.5 0 Calma 5 Sudoeste 0 -- -- 83
2019-12-09 13:00:00 8.6 0 Calma 0 Calma 0 -- -- 95
2019-12-09 12:00:00 7 0 Calma 5 Sur 0 -- -- 98
2019-12-09 11:00:00 5.4 0 Calma -- -- 0 -- -- 99
2019-12-09 10:00:00 3.3 0 Calma -- -- 0 -- -- 98
2019-12-09 09:00:00 2.5 0 Calma -- -- 0 -- -- 98
2019-12-09 08:00:00 1.9 0 Calma -- -- 0 -- -- 98
2019-12-09 07:00:00 1.3 0 Calma -- -- 0 -- -- 98
2019-12-09 06:00:00 0.9 0 Calma 0 Calma 0 -- -- 97
2019-12-09 05:00:00 1.3 0 Calma -- -- 0 -- -- 96
2019-12-09 04:00:00 1.5 0 Calma -- -- 0 -- -- 95
2019-12-09 03:00:00 2.2 0 Calma -- -- 0 -- -- 95
2019-12-09 02:00:00 3.2 0 Calma 9 Nordeste 0 -- -- 94
2019-12-09 01:00:00 3.5 0 Calma -- -- 0 -- -- 93
2019-12-09 00:00:00 5.3 0 Calma 3 Norte 0 -- -- 92
2019-12-08 23:00:00 6.7 2 Norte 11 Nordeste 0 -- -- 92
2019-12-08 22:00:00 6.6 0 Calma -- -- 0 -- -- 91
2019-12-08 21:00:00 8.3 0 Calma 13 Nordeste 0 -- -- 86
2019-12-08 20:00:00 9.6 4 Norte 23 Nordeste 0 -- -- 84
2019-12-08 19:00:00 10.5 5 Nordeste 16 Nordeste 0 -- -- 85
2019-12-08 18:00:00 12.5 4 Norte 13 Nordeste 0 -- -- 90
2019-12-08 17:00:00 13.8 0 Calma 6 Este 0 -- -- 96
2019-12-08 16:00:00 13.4 0 Calma 9 Sudoeste 0 -- -- 96
2019-12-08 15:00:00 13 0 Calma 8 Sur 0 -- -- 96
2019-12-08 14:00:00 12.5 0 Calma 3 Sur 0 -- -- 97
2019-12-08 13:00:00 12.2 0 Calma 6 Nordeste 0 -- -- 97
2019-12-08 12:00:00 11.6 0 Calma 4 Nordeste 0 -- -- 97
2019-12-08 11:00:00 11 0 Calma 9 Nordeste 0.3 -- -- 97
2019-12-08 10:00:00 10.4 0 Calma 7 Nordeste 0.4 -- -- 97
2019-12-08 09:00:00 10.2 0 Calma 3 Nordeste 0.1 -- -- 97
2019-12-08 08:00:00 10.2 0 Calma 5 Nordeste 0.4 -- -- 97
2019-12-08 07:00:00 10 0 Calma 5 Nordeste 1 -- -- 97
2019-12-08 06:00:00 10 0 Calma 4 Este 0.2 -- -- 97
2019-12-08 05:00:00 9.9 0 Calma 2 Este 0 -- -- 96
2019-12-08 04:00:00 9.9 0 Calma 0 Calma 0.1 -- -- 96
2019-12-08 03:00:00 9.9 0 Calma 3 Este 0 -- -- 95
2019-12-08 02:00:00 9.8 0 Calma 0 Calma 0 -- -- 94
2019-12-08 01:00:00 9.7 0 Calma 2 Este 0 -- -- 94
2019-12-08 00:00:00 9.6 0 Calma -- -- 0 -- -- 93
2019-12-07 23:00:00 9.7 0 Calma 2 Nordeste 0 -- -- 93
2019-12-07 22:00:00 9.4 0 Calma -- -- 0 -- -- 92
2019-12-07 21:00:00 9.3 0 Calma -- -- 0 -- -- 92
2019-12-07 20:00:00 9.4 0 Calma -- -- 0 -- -- 89
2019-12-07 19:00:00 9.8 0 Calma -- -- 0 -- -- 85
2019-12-07 18:00:00 11.2 0 Calma -- -- 0 -- -- 82
2019-12-07 17:00:00 11.9 0 Calma -- -- 0 -- -- 76
2019-12-07 16:00:00 11.8 0 Calma 6 Oeste 0 -- -- 76
2019-12-07 15:00:00 11 0 Calma 5 Este 0 -- -- 81
2019-12-07 14:00:00 9.6 0 Calma 5 Oeste 0 -- -- 89
2019-12-07 13:00:00 8 0 Calma 0 Calma 0 -- -- 97
2019-12-07 12:00:00 6.5 0 Calma 7 Sur 0 -- -- 98
2019-12-07 11:00:00 6.1 0 Calma 2 Sur 0 -- -- 99
2019-12-07 10:00:00 4.8 0 Calma -- -- 0 -- -- 99
2019-12-07 09:00:00 3.9 0 Calma 0 Calma 0 -- -- 99
2019-12-07 08:00:00 4.1 0 Calma -- -- 0 -- -- 98
2019-12-07 07:00:00 3.9 0 Calma 0 Calma 0 -- -- 98
2019-12-07 06:00:00 3.6 0 Calma 0 Calma 0 -- -- 98
2019-12-07 05:00:00 2.9 0 Calma 0 Calma 0 -- -- 98
2019-12-07 04:00:00 2.3 0 Calma 5 Este 0 -- -- 97
2019-12-07 03:00:00 2.8 0 Calma 4 Este 0 -- -- 97
2019-12-07 02:00:00 3 0 Calma -- -- 0 -- -- 97
2019-12-07 01:00:00 3.5 0 Calma 0 Calma 0 -- -- 97
2019-12-07 00:00:00 4.3 0 Calma 0 Calma 0 -- -- 96
2019-12-06 23:00:00 4.3 0 Calma 0 Calma 0 -- -- 95
2019-12-06 22:00:00 4.6 0 Calma 2 Este 0 -- -- 94
2019-12-06 21:00:00 5.3 0 Calma 0 Calma 0 -- -- 93
2019-12-06 20:00:00 6 0 Calma -- -- 0 -- -- 91
2019-12-06 19:00:00 7.5 0 Calma 0 Calma 0 -- -- 89
2019-12-06 18:00:00 9.2 0 Calma 4 Oeste 0 -- -- 84
2019-12-06 17:00:00 10.1 0 Calma 4 Sudoeste 0 -- -- 79
2019-12-06 16:00:00 11 0 Calma 6 Sudeste 0 -- -- 75
2019-12-06 15:00:00 10.3 0 Calma 4 Este 0 -- -- 80
2019-12-06 14:00:00 8.7 0 Calma 4 Oeste 0 -- -- 93
2019-12-06 13:00:00 7.2 0 Calma 2 Este 0 -- -- 98
2019-12-06 12:00:00 5.5 0 Calma 4 Sudoeste 0 -- -- 99
2019-12-06 11:00:00 4.3 0 Calma -- -- 0 -- -- 99
2019-12-06 10:00:00 2.7 0 Calma 0 Calma 0 -- -- 99
2019-12-06 09:00:00 1.8 0 Calma -- -- 0 -- -- 99
2019-12-06 08:00:00 1.5 0 Calma -- -- 0 -- -- 98
2019-12-06 07:00:00 1.3 0 Calma -- -- 0 -- -- 98
2019-12-06 06:00:00 1.3 0 Calma -- -- 0 -- -- 98
2019-12-06 05:00:00 1.3 0 Calma -- -- 0 -- -- 98
2019-12-06 04:00:00 1.2 0 Calma 0 Calma 0 -- -- 97
2019-12-06 03:00:00 1.9 0 Calma 0 Calma 0 -- -- 98
2019-12-06 02:00:00 2 0 Calma -- -- 0 -- -- 97
2019-12-06 01:00:00 2.4 0 Calma -- -- 0 -- -- 96
2019-12-06 00:00:00 2.8 0 Calma -- -- 0 -- -- 95
2019-12-05 23:00:00 3.9 0 Calma 0 Calma 0 -- -- 94
2019-12-05 22:00:00 4.6 0 Calma -- -- 0 -- -- 94
2019-12-05 21:00:00 5.6 0 Calma 0 Calma 0 -- -- 93
2019-12-05 20:00:00 6 0 Calma -- -- 0 -- -- 90
2019-12-05 19:00:00 7.6 0 Calma -- -- 0 -- -- 85
2019-12-05 18:00:00 9.5 0 Calma 4 Noroeste 0 -- -- 79
2019-12-05 17:00:00 11.1 0 Calma 6 Sudoeste 0 -- -- 73
2019-12-05 16:00:00 11.7 0 Calma 9 Sur 0 -- -- 68
2019-12-05 15:00:00 12.7 0 Calma 8 Sudeste 0 -- -- 67
2019-12-05 14:00:00 11.4 0 Calma 10 Oeste 0 -- -- 72
2019-12-05 13:00:00 10.1 0 Calma 6 Noroeste 0 -- -- 82
2019-12-05 12:00:00 6.6 0 Calma -- -- 0 -- -- 98
2019-12-05 11:00:00 2.6 0 Calma -- -- 0 -- -- 99
2019-12-05 10:00:00 0.3 0 Calma -- -- 0 -- -- 99
2019-12-05 09:00:00 -0.3 0 Calma -- -- 0 -- -- 98
2019-12-05 08:00:00 -0.5 0 Calma -- -- 0 -- -- 98
2019-12-05 07:00:00 -0.2 0 Calma -- -- 0 -- -- 98
2019-12-05 06:00:00 -0.2 0 Calma 6 Este 0 -- -- 98
2019-12-05 05:00:00 -0.2 0 Calma 4 Este 0 -- -- 98
2019-12-05 04:00:00 -0.4 0 Calma -- -- 0 -- -- 97
2019-12-05 03:00:00 -0.3 0 Calma -- -- 0 -- -- 97
2019-12-05 02:00:00 0 0 Calma -- -- 0 -- -- 96
2019-12-05 01:00:00 0.4 0 Calma -- -- 0 -- -- 95
2019-12-05 00:00:00 0.8 0 Calma -- -- 0 -- -- 95
2019-12-04 23:00:00 1.5 0 Calma -- -- 0 -- -- 94
2019-12-04 22:00:00 2.1 0 Calma -- -- 0 -- -- 93
2019-12-04 21:00:00 2.9 0 Calma 7 Nordeste 0 -- -- 91
2019-12-04 20:00:00 3.9 0 Calma 0 Calma 0 -- -- 88
2019-12-04 19:00:00 5.6 0 Calma -- -- 0 -- -- 81
2019-12-04 18:00:00 7.5 0 Calma 3 Norte 0 -- -- 72
2019-12-04 17:00:00 9.1 0 Calma 4 Sur 0 -- -- 65
2019-12-04 16:00:00 9.8 0 Calma 5 Sudoeste 0 -- -- 61
2019-12-04 15:00:00 9.6 0 Calma 6 Sudoeste 0 -- -- 63
2019-12-04 14:00:00 8.7 0 Calma 9 Sudeste 0 -- -- 64
2019-12-04 13:00:00 7.2 0 Calma -- -- 0 -- -- 73
2019-12-04 12:00:00 4.5 0 Calma -- -- 0 -- -- 98
2019-12-04 11:00:00 0.3 0 Calma -- -- 0 -- -- 99
2019-12-04 10:00:00 -1.7 0 Calma -- -- 0 -- -- 98
2019-12-04 09:00:00 -2.3 0 Calma -- -- 0 -- -- 98
2019-12-04 08:00:00 -2.2 0 Calma -- -- 0 -- -- 97
2019-12-04 07:00:00 -2 0 Calma -- -- 0 -- -- 97
2019-12-04 06:00:00 -1.4 0 Calma 4 Norte 0 -- -- 97
2019-12-04 05:00:00 -1.1 0 Calma 7 Nordeste 0 -- -- 97
2019-12-04 04:00:00 -1.2 0 Calma -- -- 0 -- -- 97
2019-12-04 03:00:00 -1.1 0 Calma -- -- 0 -- -- 96
2019-12-04 02:00:00 -0.6 0 Calma 10 Nordeste 0 -- -- 96
2019-12-04 01:00:00 0.1 3 Nordeste 9 Nordeste 0 -- -- 95
2019-12-04 00:00:00 0.1 0 Calma 11 Nordeste 0 -- -- 95
2019-12-03 23:00:00 0.3 0 Calma 5 Nordeste 0 -- -- 93
2019-12-03 22:00:00 1.1 0 Calma -- -- 0 -- -- 92
2019-12-03 21:00:00 1.8 0 Calma 3 Norte 0 -- -- 89
2019-12-03 20:00:00 3.3 0 Calma 0 Calma 0 -- -- 85
2019-12-03 19:00:00 4.8 0 Calma -- -- 0 -- -- 77
2019-12-03 18:00:00 7.5 0 Calma 0 Calma 0 -- -- 62
2019-12-03 17:00:00 9.4 0 Calma 7 Este 0 -- -- 51
2019-12-03 16:00:00 10.4 0 Calma 10 Este 0 -- -- 48
2019-12-03 15:00:00 10.5 0 Calma 8 Este 0 -- -- 50
2019-12-03 14:00:00 9.5 0 Calma 8 Este 0 -- -- 55
2019-12-03 13:00:00 8.5 0 Calma 16 Este 0 -- -- 62
2019-12-03 12:00:00 5.8 5 Este 12 Este 0 -- -- 82
2019-12-03 11:00:00 1 0 Calma -- -- 0 -- -- 99
2019-12-03 10:00:00 -0.8 0 Calma 4 Noroeste 0 -- -- 98
2019-12-03 09:00:00 -1.5 0 Calma -- -- 0 -- -- 98
2019-12-03 08:00:00 -1.3 0 Calma 0 Calma 0 -- -- 98
2019-12-03 07:00:00 -1.3 0 Calma -- -- 0 -- -- 97
2019-12-03 06:00:00 -1.1 0 Calma -- -- 0 -- -- 97
2019-12-03 05:00:00 -0.5 0 Calma -- -- 0 -- -- 97
2019-12-03 04:00:00 -0.2 0 Calma -- -- 0 -- -- 96
2019-12-03 03:00:00 0.3 0 Calma -- -- 0 -- -- 96
2019-12-03 02:00:00 1 0 Calma 0 Calma 0 -- -- 95
2019-12-03 01:00:00 1.6 0 Calma 0 Calma 0 -- -- 94
2019-12-03 00:00:00 2.5 0 Calma 0 Calma 0 -- -- 93
2019-12-02 23:00:00 3.3 0 Calma 6 Oeste 0 -- -- 92
2019-12-02 22:00:00 3.8 0 Calma 6 Sudeste 0 -- -- 91
2019-12-02 21:00:00 4.8 0 Calma 3 Noroeste 0 -- -- 84
2019-12-02 20:00:00 6.7 0 Calma 12 Nordeste 0 -- -- 74
2019-12-02 19:00:00 8.4 6 Nordeste 22 Nordeste 0 -- -- 65
2019-12-02 18:00:00 9.1 12 Nordeste 29 Nordeste 0 -- -- 62
2019-12-02 17:00:00 10.2 11 Nordeste 28 Este 0 -- -- 59
2019-12-02 16:00:00 11.6 11 Nordeste 27 Norte 0 -- -- 56
2019-12-02 15:00:00 12.6 8 Nordeste 30 Norte 0 -- -- 54
2019-12-02 14:00:00 12.3 10 Nordeste 32 Este 0 -- -- 57
2019-12-02 13:00:00 12.6 9 Nordeste 33 Nordeste 0 -- -- 59
2019-12-02 12:00:00 11.1 15 Nordeste 39 Nordeste 0 -- -- 67
2019-12-02 11:00:00 10.2 13 Nordeste 37 Nordeste 0 -- -- 73
2019-12-02 10:00:00 6.9 6 Nordeste 19 Nordeste 0 -- -- 94
2019-12-02 09:00:00 4.8 0 Calma 5 Nordeste 0 -- -- 93
2019-12-02 08:00:00 5.1 0 Calma 5 Oeste 0 -- -- 91
2019-12-02 07:00:00 5.7 0 Calma 17 Nordeste 0 -- -- 89
2019-12-02 06:00:00 5.9 0 Calma 10 Norte 0 -- -- 88
2019-12-02 05:00:00 6.4 0 Calma 15 Noroeste 0 -- -- 87
2019-12-02 04:00:00 7.3 3 Norte 16 Nordeste 0 -- -- 85
2019-12-02 03:00:00 7.5 3 Norte 17 Nordeste 0 -- -- 83
2019-12-02 02:00:00 7.3 8 Nordeste 32 Este 0 -- -- 82
2019-12-02 01:00:00 7.2 11 Norte 29 Nordeste 0 -- -- 83
2019-12-02 00:00:00 7.4 8 Norte 25 Nordeste 0 -- -- 81
2019-12-01 23:00:00 7.4 10 Norte 28 Nordeste 0 -- -- 78
2019-12-01 22:00:00 7.7 11 Nordeste 44 Nordeste 0 -- -- 71
2019-12-01 21:00:00 8 10 Nordeste 42 Nordeste 0 -- -- 71
2019-12-01 20:00:00 8.9 9 Norte 35 Nordeste 0 -- -- 73
2019-12-01 19:00:00 9.6 9 Norte 26 Norte 0 -- -- 73
2019-12-01 18:00:00 10.2 9 Norte 26 Nordeste 0 -- -- 72
2019-12-01 17:00:00 11.2 10 Norte 28 Norte 0 -- -- 67
2019-12-01 16:00:00 11.5 10 Nordeste 33 Nordeste 0 -- -- 67
2019-12-01 15:00:00 11.5 11 Nordeste 30 Nordeste 0 -- -- 68
2019-12-01 14:00:00 11.3 10 Nordeste 29 Norte 0 -- -- 67
2019-12-01 13:00:00 11.6 9 Nordeste 36 Nordeste 0 -- -- 70
2019-12-01 12:00:00 10.7 11 Nordeste 29 Nordeste 0 -- -- 73
2019-12-01 11:00:00 8.5 2 Norte 14 Norte 0 -- -- 90
2019-12-01 10:00:00 8 5 Nordeste 19 Nordeste 0 -- -- 90
2019-12-01 09:00:00 7.8 3 Nordeste 10 Nordeste 0 -- -- 96
2019-12-01 08:00:00 7.8 0 Calma 12 Nordeste 0 -- -- 96
2019-12-01 07:00:00 7.7 0 Calma 23 Este 0.1 -- -- 96
2019-12-01 06:00:00 7.6 6 Este 18 Este 1.4 -- -- 96
2019-12-01 05:00:00 7.9 3 Nordeste 11 Nordeste 1.3 -- -- 96
2019-12-01 04:00:00 8.1 0 Calma 8 Sudeste 0.5 -- -- 96
2019-12-01 03:00:00 8.7 0 Calma 6 Sur 0.9 -- -- 96
2019-12-01 02:00:00 8.8 3 Sur 15 Sudoeste 5.6 -- -- 96
2019-12-01 01:00:00 8.9 2 Sur 11 Sudeste 2.6 -- -- 95
2019-12-01 00:00:00 9 0 Calma 11 Sur 0.3 -- -- 96
2019-11-30 23:00:00 9.1 0 Calma 13 Sur 0.4 -- -- 95
2019-11-30 22:00:00 9.2 2 Sur 13 Sur 0.1 -- -- 95
2019-11-30 21:00:00 9.5 0 Calma 5 Oeste 2 -- -- 93
2019-11-30 20:00:00 9.7 0 Calma 12 Sur 0 -- -- 92
2019-11-30 19:00:00 10 0 Calma 12 Oeste 0.8 -- -- 86
2019-11-30 18:00:00 10.3 0 Calma 14 Sur 0 -- -- 79
2019-11-30 17:00:00 11.2 4 Oeste 22 Oeste 0 -- -- 74
2019-11-30 16:00:00 12 5 Oeste 23 Sudoeste 0 -- -- 71
2019-11-30 15:00:00 11.2 4 Oeste 30 Sudoeste 0.2 -- -- 68
2019-11-30 14:00:00 13.4 6 Oeste 22 Oeste 0 -- -- 59
2019-11-30 13:00:00 13.5 2 Sudoeste 21 Sur 0 -- -- 73
2019-11-30 12:00:00 11.6 0 Calma 4 Oeste 0 -- -- 83
2019-11-30 11:00:00 11.1 0 Calma 6 Noroeste 0 -- -- 83
2019-11-30 10:00:00 10.9 0 Calma 27 Sudeste 0 -- -- 83
2019-11-30 09:00:00 11.1 0 Calma 13 Oeste 0 -- -- 88
2019-11-30 08:00:00 11.4 4 Noroeste 26 Oeste 0 -- -- 86
2019-11-30 07:00:00 12.5 12 Oeste 31 Oeste 1.8 -- -- 91
2019-11-30 06:00:00 13.3 0 Calma 17 Sur 1.1 -- -- 97
2019-11-30 05:00:00 13.7 0 Calma 18 Oeste 1 -- -- 97
2019-11-30 04:00:00 13.7 2 Sudoeste 17 Sudoeste 4.3 -- -- 97
2019-11-30 03:00:00 13.9 0 Calma 19 Sudoeste 0.7 -- -- 97
2019-11-30 02:00:00 13.8 2 Sudoeste 19 Sur 1.3 -- -- 97
2019-11-30 01:00:00 13.3 0 Calma 12 Sudoeste 1.1 -- -- 97
2019-11-30 00:00:00 12.3 0 Calma -- -- 0.8 -- -- 96
2019-11-29 23:00:00 12.3 0 Calma -- -- 0.5 -- -- 96
2019-11-29 22:00:00 12.4 0 Calma 4 Nordeste 0.5 -- -- 95
2019-11-29 21:00:00 12.6 0 Calma 4 Sur 0.1 -- -- 94
2019-11-29 20:00:00 12.8 0 Calma 0 Calma 0 -- -- 93
2019-11-29 19:00:00 13 0 Calma -- -- 0 -- -- 91
2019-11-29 18:00:00 13.6 0 Calma 0 Calma 0 -- -- 87
2019-11-29 17:00:00 14.6 0 Calma 6 Sudeste 0 -- -- 82
2019-11-29 16:00:00 15.3 0 Calma 2 Nordeste 0 -- -- 76
2019-11-29 15:00:00 15.2 0 Calma 4 Nordeste 0 -- -- 81
2019-11-29 14:00:00 13.3 0 Calma 2 Sudeste 0 -- -- 91
2019-11-29 13:00:00 12.4 0 Calma 2 Sur 0 -- -- 97
2019-11-29 12:00:00 11.7 0 Calma -- -- 0 -- -- 98
2019-11-29 11:00:00 10.6 0 Calma 6 Nordeste 0 -- -- 98
2019-11-29 10:00:00 9.7 3 Nordeste 8 Nordeste 0 -- -- 98
2019-11-29 09:00:00 8.9 0 Calma 8 Nordeste 0 -- -- 98
2019-11-29 08:00:00 8.8 0 Calma 5 Este 0 -- -- 97
2019-11-29 07:00:00 8.4 0 Calma 10 Nordeste 0 -- -- 97
2019-11-29 06:00:00 8.6 0 Calma -- -- 0 -- -- 97
2019-11-29 05:00:00 8.9 0 Calma 3 Nordeste 0 -- -- 96
2019-11-29 04:00:00 8.7 0 Calma 4 Norte 0 -- -- 96
2019-11-29 03:00:00 9 0 Calma 4 Este 0 -- -- 96
2019-11-29 02:00:00 9.2 0 Calma -- -- 0 -- -- 95
2019-11-29 01:00:00 10 0 Calma 0 Calma 0 -- -- 95
2019-11-29 00:00:00 10.7 0 Calma -- -- 0 -- -- 94
2019-11-28 23:00:00 11.7 0 Calma 0 Calma 0 -- -- 94
2019-11-28 22:00:00 12.6 0 Calma 7 Oeste 0 -- -- 94
2019-11-28 21:00:00 13.1 0 Calma 11 Oeste 0 -- -- 94
2019-11-28 20:00:00 13.2 0 Calma 19 Sudoeste 0 -- -- 96
2019-11-28 19:00:00 13.5 0 Calma 23 Sudoeste 0.3 -- -- 97
2019-11-28 18:00:00 13.5 0 Calma 19 Sur 0.5 -- -- 97
2019-11-28 17:00:00 13 2 Sur 15 Oeste 1.4 -- -- 96
2019-11-28 16:00:00 12.5 0 Calma 9 Oeste 1.8 -- -- 95
2019-11-28 15:00:00 12.2 2 Sur 16 Sur 1 -- -- 94
2019-11-28 14:00:00 12.4 2 Sur 15 Sur 0.9 -- -- 94
2019-11-28 13:00:00 12.5 0 Calma 13 Oeste 0.3 -- -- 92
2019-11-28 12:00:00 12.8 3 Oeste 12 Oeste 0.2 -- -- 92
2019-11-28 11:00:00 12.4 3 Oeste 19 Noroeste 0 -- -- 93
2019-11-28 10:00:00 11.8 7 Oeste 14 Noroeste 0 -- -- 96
2019-11-28 09:00:00 12.3 6 Oeste 16 Oeste 0 -- -- 98
2019-11-28 08:00:00 13 0 Calma 14 Oeste 0 -- -- 98
2019-11-28 07:00:00 12.9 0 Calma 6 Oeste 0.1 -- -- 98
2019-11-28 06:00:00 12.8 0 Calma 23 Sudoeste 0.1 -- -- 98
2019-11-28 05:00:00 12.7 2 Sudoeste 15 Sudoeste 0.1 -- -- 98
2019-11-28 04:00:00 12.1 0 Calma 5 Oeste 0.3 -- -- 98
2019-11-28 03:00:00 11.8 0 Calma 6 Sur 0.2 -- -- 98
2019-11-28 02:00:00 11.5 0 Calma 5 Sudoeste 0 -- -- 98
2019-11-28 01:00:00 11.3 0 Calma 11 Sudeste 0.1 -- -- 98
2019-11-28 00:00:00 11.2 0 Calma 10 Sudoeste 0.1 -- -- 98
2019-11-27 23:00:00 11.1 0 Calma 8 Sur 0.6 -- -- 98
2019-11-27 22:00:00 10.8 0 Calma 8 Sudoeste 0.5 -- -- 97
2019-11-27 21:00:00 10.7 0 Calma 10 Sur 0.9 -- -- 97
2019-11-27 20:00:00 10.8 0 Calma 7 Sudoeste 0.4 -- -- 96
2019-11-27 19:00:00 10.8 0 Calma 13 Noroeste 0.2 -- -- 95
2019-11-27 18:00:00 10.8 5 Sudoeste 24 Sudoeste 0.2 -- -- 94
2019-11-27 17:00:00 11.1 0 Calma 18 Sudoeste 0.5 -- -- 92
2019-11-27 16:00:00 11.2 3 Sudoeste 15 Oeste 0 -- -- 92
2019-11-27 15:00:00 10.8 3 Oeste 20 Oeste 0.8 -- -- 94
2019-11-27 14:00:00 11.3 2 Sudoeste 16 Oeste 3 -- -- 94
2019-11-27 06:00:00 9.8 0 Calma 5 Oeste 0.5 -- -- 96
2019-11-27 05:00:00 10.3 0 Calma 6 Oeste 2.2 -- -- 96
2019-11-27 04:00:00 10.4 0 Calma 10 Sur 0.7 -- -- 95
2019-11-27 03:00:00 10.3 2 Oeste 14 Noroeste 1.3 -- -- 95
2019-11-27 02:00:00 10.4 0 Calma 19 Sudoeste 0.3 -- -- 93
2019-11-27 01:00:00 10.4 3 Sudoeste 17 Sudoeste 0.5 -- -- 92
2019-11-27 00:00:00 10.2 3 Sudoeste 25 Oeste 0.2 -- -- 91
2019-11-26 23:00:00 10.1 0 Calma 19 Oeste 0.3 -- -- 89
2019-11-26 22:00:00 10 2 Sudoeste 23 Oeste 0 -- -- 86
2019-11-26 21:00:00 10.2 4 Sudoeste 37 Sudoeste 0.1 -- -- 89
2019-11-26 20:00:00 10.3 4 Oeste 24 Oeste 2.6 -- -- 92
2019-11-26 19:00:00 10.8 8 Oeste 39 Oeste 0.1 -- -- 85
2019-11-26 18:00:00 10.7 9 Oeste 42 Oeste 3.8 -- -- 90
2019-11-26 17:00:00 12.1 5 Oeste 36 Oeste 3.1 -- -- 90
2019-11-26 16:00:00 13.6 11 Oeste 44 Oeste 3.3 -- -- 87
2019-11-26 15:00:00 13.5 4 Sudoeste 25 Sudoeste 0.7 -- -- 91
2019-11-26 14:00:00 13.8 3 Sudoeste 28 Sur 0 -- -- 87
2019-11-26 13:00:00 14.4 5 Sur 28 Sur 0 -- -- 76
2019-11-26 12:00:00 14.2 4 Sur 24 Sudeste 0 -- -- 78
2019-11-26 11:00:00 14 2 Sur 17 Sur 0 -- -- 82
2019-11-26 10:00:00 14.2 3 Sur 22 Sur 0 -- -- 78
2019-11-26 09:00:00 13.5 0 Calma 19 Sur 0 -- -- 83
2019-11-26 08:00:00 13.6 3 Sur 21 Sudeste 0 -- -- 85
2019-11-26 07:00:00 13.8 4 Sudoeste 26 Sur 0.1 -- -- 91
2019-11-26 06:00:00 14.3 0 Calma 21 Noroeste 1.3 -- -- 97
2019-11-26 05:00:00 14.3 0 Calma 25 Sur 0.7 -- -- 96
2019-11-26 04:00:00 14 4 Sur 31 Sur 0.5 -- -- 95
2019-11-26 03:00:00 14.1 3 Sudoeste 21 Oeste 0.3 -- -- 93
2019-11-26 02:00:00 14 3 Sudoeste 23 Sudoeste 0 -- -- 92
2019-11-26 01:00:00 13.1 2 Sur 24 Sur 0 -- -- 93
2019-11-26 00:00:00 12.1 2 Sudeste 10 Sudeste 0.1 -- -- 91
2019-11-25 23:00:00 12.8 0 Calma 12 Este 0 -- -- 85
2019-11-25 22:00:00 13 0 Calma 15 Sudeste 0 -- -- 84
2019-11-25 21:00:00 13 2 Sur 18 Oeste 0 -- -- 84
2019-11-25 20:00:00 13.1 2 Sur 22 Sur 0 -- -- 85
2019-11-25 19:00:00 13.1 3 Sur 16 Sudeste 0 -- -- 85
2019-11-25 18:00:00 13.1 0 Calma 10 Sudoeste 0 -- -- 82
2019-11-25 17:00:00 13.4 0 Calma 20 Oeste 0 -- -- 78
2019-11-25 16:00:00 13.2 4 Oeste 17 Oeste 0 -- -- 82
2019-11-25 15:00:00 13.4 0 Calma 14 Sudoeste 0 -- -- 81
2019-11-25 14:00:00 13.7 0 Calma 23 Oeste 0 -- -- 78
2019-11-25 13:00:00 13.4 0 Calma 11 Oeste 0.1 -- -- 89
2019-11-25 12:00:00 12.2 0 Calma 3 Nordeste 0 -- -- 91
2019-11-25 11:00:00 11.9 0 Calma 5 Oeste 0 -- -- 93
2019-11-25 10:00:00 11.3 0 Calma 17 Oeste 0 -- -- 95
2019-11-25 09:00:00 11.5 0 Calma 4 Nordeste 0.2 -- -- 94
2019-11-25 08:00:00 11.6 0 Calma 14 Sur 0.1 -- -- 91
2019-11-25 07:00:00 11.8 2 Sudoeste 18 Sudoeste 0 -- -- 88
2019-11-25 06:00:00 11.7 2 Sudoeste 18 Oeste 0 -- -- 90
2019-11-25 05:00:00 11.8 0 Calma 12 Oeste 0 -- -- 95
2019-11-25 04:00:00 12.1 4 Oeste 20 Oeste 0 -- -- 95
2019-11-25 03:00:00 12 0 Calma 6 Sur 0.1 -- -- 92
2019-11-25 02:00:00 12.2 0 Calma 22 Oeste 0.1 -- -- 89
2019-11-25 01:00:00 12.9 5 Oeste 27 Oeste 0.3 -- -- 88
2019-11-25 00:00:00 13.4 9 Oeste 34 Oeste 0.1 -- -- 91
2019-11-24 23:00:00 13.3 0 Calma 13 Sudoeste 0.1 -- -- 92
2019-11-24 22:00:00 13.3 0 Calma 26 Sudoeste 0 -- -- 91
2019-11-24 21:00:00 13 6 Oeste 18 Oeste 0.4 -- -- 97
2019-11-24 20:00:00 12.1 0 Calma 2 Nordeste 3.6 -- -- 97
2019-11-24 19:00:00 12.2 0 Calma 21 Sur 0.4 -- -- 96
2019-11-24 18:00:00 11.8 3 Sudoeste 24 Sudoeste 1.1 -- -- 96
2019-11-24 17:00:00 11.4 2 Sur 19 Sudoeste 0.5 -- -- 96
2019-11-24 16:00:00 10.9 0 Calma 18 Sur 0.3 -- -- 95
2019-11-24 15:00:00 10.6 3 Sur 18 Sur 0.1 -- -- 95
2019-11-24 14:00:00 10.3 2 Sur 21 Sur 0 -- -- 94
2019-11-24 13:00:00 9.3 0 Calma 5 Sur 0 -- -- 97
2019-11-24 12:00:00 9.1 0 Calma 7 Sur 0 -- -- 98
2019-11-24 11:00:00 7.8 0 Calma 4 Nordeste 0 -- -- 99
2019-11-24 10:00:00 7 0 Calma 5 Este 0 -- -- 99
2019-11-24 09:00:00 6.2 0 Calma 8 Este 0 -- -- 99
2019-11-24 08:00:00 5.9 0 Calma 0 Calma 0 -- -- 99
2019-11-24 07:00:00 5.4 0 Calma -- -- 0 -- -- 99
2019-11-24 06:00:00 4.8 0 Calma -- -- 0 -- -- 98
2019-11-24 05:00:00 4.6 0 Calma -- -- 0 -- -- 98
2019-11-24 04:00:00 4.3 0 Calma 9 Nordeste 0 -- -- 98
2019-11-24 03:00:00 3.2 0 Calma -- -- 0 -- -- 97
2019-11-24 02:00:00 3.5 0 Calma 0 Calma 0 -- -- 97
2019-11-24 01:00:00 4.1 0 Calma 7 Oeste 0 -- -- 97
2019-11-24 00:00:00 4.6 0 Calma -- -- 0 -- -- 96
2019-11-23 23:00:00 5.5 0 Calma -- -- 0 -- -- 95
2019-11-23 22:00:00 6.6 0 Calma -- -- 0 -- -- 95
2019-11-23 21:00:00 7 0 Calma -- -- 0 -- -- 94
2019-11-23 20:00:00 7.8 0 Calma -- -- 0 -- -- 93
2019-11-23 19:00:00 9 0 Calma 7 Oeste 0.1 -- -- 91
2019-11-23 18:00:00 9.5 4 Oeste 12 Oeste 0.1 -- -- 87
2019-11-23 17:00:00 10.1 2 Noroeste 17 Noroeste 0 -- -- 85
2019-11-23 16:00:00 10.7 4 Oeste 20 Noroeste 0 -- -- 82
2019-11-23 15:00:00 10.4 8 Oeste 19 Noroeste 1.3 -- -- 82
2019-11-23 14:00:00 10.7 9 Oeste 23 Oeste 0 -- -- 70
2019-11-23 13:00:00 11.5 7 Oeste 26 Noroeste 0 -- -- 68
2019-11-23 12:00:00 10.2 3 Oeste 13 Oeste 0 -- -- 83
2019-11-23 11:00:00 9.1 5 Oeste 15 Sur 0 -- -- 86
2019-11-23 10:00:00 8 0 Calma 13 Oeste 0.1 -- -- 90
2019-11-23 09:00:00 7.8 5 Oeste 18 Sudoeste 0 -- -- 90
2019-11-23 08:00:00 7.3 2 Oeste 15 Sudoeste 0 -- -- 91
2019-11-23 07:00:00 7.1 2 Oeste 16 Oeste 0.1 -- -- 93
2019-11-23 06:00:00 7.1 0 Calma 19 Oeste 0 -- -- 94
2019-11-23 05:00:00 7 0 Calma 6 Oeste 0.3 -- -- 93
2019-11-23 04:00:00 7.2 0 Calma 21 Norte 0.6 -- -- 91
2019-11-23 03:00:00 7.6 5 Noroeste 30 Norte 0.1 -- -- 90
2019-11-23 02:00:00 7.4 6 Oeste 24 Noroeste 0.7 -- -- 91
2019-11-23 01:00:00 7.7 5 Oeste 32 Noroeste 0.4 -- -- 91
2019-11-23 00:00:00 7.7 3 Oeste 21 Noroeste 1.1 -- -- 91
2019-11-22 23:00:00 7.9 10 Oeste 38 Oeste 2.1 -- -- 90
2019-11-22 22:00:00 8.5 8 Noroeste 52 Noroeste 1 -- -- 88
2019-11-22 21:00:00 9.3 12 Oeste 43 Noroeste 0.5 -- -- 88
2019-11-22 20:00:00 9.4 9 Oeste 41 Oeste 0.6 -- -- 90
2019-11-22 19:00:00 9.8 9 Oeste 43 Oeste 0.1 -- -- 90
2019-11-22 18:00:00 10.2 14 Oeste 51 Noroeste 1.2 -- -- 87
2019-11-22 17:00:00 10.4 4 Oeste 26 Oeste 3 -- -- 93
2019-11-22 16:00:00 10.1 9 Oeste 36 Oeste 3.4 -- -- 91
2019-11-22 15:00:00 10.2 0 Calma 21 Oeste 1.7 -- -- 91
2019-11-22 14:00:00 10.1 10 Oeste 35 Oeste 3 -- -- 86
2019-11-22 13:00:00 12.3 6 Oeste 32 Oeste 0.1 -- -- 82
2019-11-22 12:00:00 11.5 5 Oeste 28 Norte 0.1 -- -- 92
2019-11-22 11:00:00 12.2 11 Oeste 32 Sudoeste 1.3 -- -- 94
2019-11-22 10:00:00 11.5 4 Sudoeste 21 Sudoeste 0.9 -- -- 98
2019-11-22 09:00:00 10.8 2 Sur 16 Sudoeste 3.3 -- -- 98
2019-11-22 08:00:00 10.4 2 Este 28 Sudeste 3.4 -- -- 98
2019-11-22 07:00:00 8.5 2 Este 10 Este 0.1 -- -- 97
2019-11-22 06:00:00 8.3 0 Calma -- -- 2.4 -- -- 96
2019-11-22 05:00:00 8.1 0 Calma 5 Este 0.9 -- -- 96
2019-11-22 04:00:00 7.9 0 Calma 9 Este 1.9 -- -- 95
2019-11-22 03:00:00 7.9 0 Calma 8 Este 0.7 -- -- 93
2019-11-22 02:00:00 7.9 0 Calma 7 Este 0.3 -- -- 92
2019-11-22 01:00:00 8 0 Calma 11 Sudeste 0 -- -- 91
2019-11-22 00:00:00 7.2 0 Calma 8 Sur 0 -- -- 96
2019-11-21 23:00:00 7.2 0 Calma 2 Este 0 -- -- 96
2019-11-21 22:00:00 7.2 0 Calma 7 Este 0 -- -- 96
2019-11-21 21:00:00 7.3 0 Calma -- -- 0 -- -- 94
2019-11-21 20:00:00 7.5 0 Calma 5 Este 0 -- -- 93
2019-11-21 19:00:00 8.3 0 Calma 0 Calma 0 -- -- 90
2019-11-21 18:00:00 9.6 0 Calma 3 Sur 0 -- -- 85
2019-11-21 17:00:00 10.3 0 Calma 6 Sudoeste 0 -- -- 80
2019-11-21 16:00:00 10.4 0 Calma 19 Oeste 0.1 -- -- 77
2019-11-21 15:00:00 12.2 2 Sudoeste 12 Sudeste 0 -- -- 78
2019-11-21 14:00:00 10.7 0 Calma 11 Sur 0.4 -- -- 88
2019-11-21 13:00:00 10.2 3 Sudeste 9 Sudeste 0 -- -- 94
2019-11-21 12:00:00 8.7 0 Calma 5 Sur 0 -- -- 98
2019-11-21 11:00:00 7.1 0 Calma -- -- 0.1 -- -- 99
2019-11-21 10:00:00 5.1 0 Calma 5 Norte 0.9 -- -- 98
2019-11-21 09:00:00 3.6 0 Calma -- -- 0 -- -- 98
2019-11-21 08:00:00 3.2 0 Calma -- -- 0 -- -- 98
2019-11-21 07:00:00 3.9 0 Calma 4 Nordeste 0 -- -- 98
2019-11-21 06:00:00 4.5 0 Calma -- -- 0 -- -- 98
2019-11-21 05:00:00 6 0 Calma 3 Este 0.1 -- -- 98
2019-11-21 04:00:00 6.6 0 Calma 4 Sudeste 1 -- -- 98
2019-11-21 03:00:00 6.6 0 Calma 4 Nordeste 0.1 -- -- 98
2019-11-21 02:00:00 6.5 0 Calma 6 Nordeste 0.6 -- -- 97
2019-11-21 01:00:00 6 0 Calma -- -- 0.1 -- -- 97
2019-11-21 00:00:00 5.6 0 Calma -- -- 0 -- -- 97
2019-11-20 23:00:00 6.4 0 Calma -- -- 1 -- -- 97
2019-11-20 22:00:00 7.1 0 Calma -- -- 0.8 -- -- 96
2019-11-20 21:00:00 7.3 0 Calma 0 Calma 1.6 -- -- 96
2019-11-20 20:00:00 7.2 0 Calma 6 Nordeste 0 -- -- 95
2019-11-20 19:00:00 7.5 0 Calma 7 Este 0.1 -- -- 94
2019-11-20 18:00:00 8.2 0 Calma 8 Noroeste 1.7 -- -- 93
2019-11-20 17:00:00 8.4 0 Calma 4 Sur 0 -- -- 92
2019-11-20 16:00:00 8.2 0 Calma 17 Noroeste 1.5 -- -- 92
2019-11-20 15:00:00 8 0 Calma 19 Sur 0.5 -- -- 91
2019-11-20 14:00:00 9 0 Calma 9 Sur 0 -- -- 92
2019-11-20 13:00:00 9 0 Calma 4 Nordeste 0 -- -- 97
2019-11-20 12:00:00 7.9 0 Calma 4 Sudeste 0 -- -- 98
2019-11-20 11:00:00 7.3 0 Calma 4 Noroeste 0 -- -- 98
2019-11-20 10:00:00 7.2 0 Calma 0 Calma 0 -- -- 98
2019-11-20 09:00:00 7.3 0 Calma -- -- 0 -- -- 97
2019-11-20 08:00:00 7.2 0 Calma -- -- 0 -- -- 97
2019-11-20 07:00:00 7.3 0 Calma 0 Calma 0 -- -- 97
2019-11-20 06:00:00 7.3 0 Calma -- -- 0 -- -- 97
2019-11-20 05:00:00 7.4 0 Calma 3 Nordeste 0 -- -- 97
2019-11-20 04:00:00 7.4 0 Calma 2 Nordeste 0 -- -- 97
2019-11-20 03:00:00 7.4 0 Calma 6 Nordeste 0 -- -- 97
2019-11-20 02:00:00 7.4 0 Calma 6 Nordeste 0 -- -- 97
2019-11-20 01:00:00 7.4 0 Calma 7 Nordeste 0 -- -- 97
2019-11-20 00:00:00 7.5 0 Calma 9 Nordeste 0.3 -- -- 97
2019-11-19 23:00:00 7.6 0 Calma 10 Nordeste 0.1 -- -- 97
2019-11-19 22:00:00 7.8 0 Calma 8 Este 0.3 -- -- 97
2019-11-19 21:00:00 7.9 2 Este 8 Este 0.1 -- -- 96
2019-11-19 20:00:00 7.9 0 Calma 9 Nordeste 0.9 -- -- 96
2019-11-19 19:00:00 8.3 0 Calma 4 Este 2.1 -- -- 95
2019-11-19 18:00:00 8.5 0 Calma 5 Nordeste 2.8 -- -- 95
2019-11-19 17:00:00 8.8 0 Calma 9 Este 0.8 -- -- 92
2019-11-19 16:00:00 9.2 0 Calma 9 Este 0.2 -- -- 90
2019-11-19 15:00:00 9.2 0 Calma 6 Este 0 -- -- 90
2019-11-19 14:00:00 8.7 0 Calma 6 Sudeste 0 -- -- 90
2019-11-19 13:00:00 8 0 Calma 5 Este 0.1 -- -- 91
2019-11-19 12:00:00 6.9 0 Calma 6 Este 0 -- -- 97
2019-11-19 11:00:00 5.9 0 Calma 5 Nordeste 0 -- -- 98
2019-11-19 10:00:00 4.4 0 Calma -- -- 0.4 -- -- 97
2019-11-19 09:00:00 3.6 0 Calma 4 Nordeste 0.2 -- -- 98
2019-11-19 08:00:00 3.7 0 Calma 0 Calma 0 -- -- 97
2019-11-19 07:00:00 3.9 0 Calma -- -- 0 -- -- 97
2019-11-19 06:00:00 3.8 0 Calma -- -- 0 -- -- 97
2019-11-19 05:00:00 3.7 0 Calma -- -- 0 -- -- 97
2019-11-19 04:00:00 3.8 0 Calma 6 Nordeste 0 -- -- 97
2019-11-19 03:00:00 3.5 0 Calma -- -- 0 -- -- 97
2019-11-19 02:00:00 3.1 0 Calma 6 Nordeste 0 -- -- 96
2019-11-19 01:00:00 3 0 Calma 6 Nordeste 0 -- -- 95
2019-11-19 00:00:00 2.7 0 Calma 5 Nordeste 0 -- -- 95
2019-11-18 23:00:00 3.6 0 Calma 8 Nordeste 0 -- -- 94
2019-11-18 22:00:00 4.3 0 Calma -- -- 0 -- -- 92
2019-11-18 21:00:00 5.7 0 Calma -- -- 0 -- -- 90
2019-11-18 20:00:00 7.4 0 Calma -- -- 0 -- -- 87
2019-11-18 19:00:00 9.5 0 Calma -- -- 0 -- -- 84
2019-11-18 18:00:00 10.7 0 Calma 0 Calma 0 -- -- 75
2019-11-18 17:00:00 11.5 0 Calma 6 Oeste 0 -- -- 66
2019-11-18 16:00:00 11.9 0 Calma 10 Nordeste 0 -- -- 64
2019-11-18 15:00:00 11.9 2 Norte 11 Norte 0 -- -- 61
2019-11-18 14:00:00 12.1 0 Calma 13 Noroeste 0 -- -- 61
2019-11-18 13:00:00 12.7 2 Oeste 10 Nordeste 0 -- -- 62
2019-11-18 12:00:00 10.3 0 Calma 10 Este 0 -- -- 89
2019-11-18 11:00:00 5.4 0 Calma -- -- 0 -- -- 98
2019-11-18 10:00:00 3.5 0 Calma 0 Calma 0 -- -- 98
2019-11-18 09:00:00 2.2 0 Calma -- -- 0 -- -- 97
2019-11-18 08:00:00 2.6 0 Calma -- -- 0 -- -- 96
2019-11-18 07:00:00 3.4 0 Calma -- -- 0 -- -- 96
2019-11-18 06:00:00 4.5 0 Calma -- -- 0 -- -- 96
2019-11-18 05:00:00 5.9 0 Calma 12 Norte 0 -- -- 96
2019-11-18 04:00:00 5.7 3 Noroeste 17 Noroeste 0 -- -- 96
2019-11-18 03:00:00 5.2 0 Calma 7 Noroeste 0 -- -- 96
2019-11-18 02:00:00 5.1 0 Calma 6 Noroeste 0 -- -- 95
2019-11-18 01:00:00 5.7 2 Noroeste 12 Noroeste 0 -- -- 95
2019-11-18 00:00:00 6.2 0 Calma 6 Norte 0 -- -- 95
2019-11-17 23:00:00 6.8 0 Calma 5 Noroeste 0 -- -- 95
2019-11-17 22:00:00 7.5 0 Calma -- -- 0.1 -- -- 94
2019-11-17 21:00:00 7.6 0 Calma 4 Noroeste 0.4 -- -- 90
2019-11-17 20:00:00 7.6 0 Calma 6 Oeste 0 -- -- 85
2019-11-17 19:00:00 7.9 0 Calma 22 Noroeste 0 -- -- 80
2019-11-17 18:00:00 8.5 5 Noroeste 23 Noroeste 0.1 -- -- 76
2019-11-17 17:00:00 9.9 10 Noroeste 25 Noroeste 0 -- -- 68
2019-11-17 16:00:00 10.2 6 Noroeste 23 Noroeste 0 -- -- 72
2019-11-17 15:00:00 12.3 9 Noroeste 22 Oeste 0 -- -- 65
2019-11-17 14:00:00 11.5 8 Oeste 21 Oeste 0 -- -- 77
2019-11-17 13:00:00 10.4 4 Oeste 18 Oeste 0 -- -- 92
2019-11-17 12:00:00 9 2 Oeste 10 Oeste 0 -- -- 98
2019-11-17 11:00:00 8.9 0 Calma 5 Noroeste 0.2 -- -- 98
2019-11-17 10:00:00 8.1 0 Calma -- -- 0.8 -- -- 98
2019-11-17 09:00:00 7.4 0 Calma -- -- 0.3 -- -- 97
2019-11-17 08:00:00 7.2 0 Calma -- -- 0.3 -- -- 97
2019-11-17 07:00:00 7.2 0 Calma 3 Norte 0.4 -- -- 97
2019-11-17 06:00:00 7.1 0 Calma 9 Nordeste 0.1 -- -- 97
2019-11-17 05:00:00 7.1 0 Calma 8 Oeste 0 -- -- 96
2019-11-17 04:00:00 7 0 Calma 9 Nordeste 0 -- -- 96
2019-11-17 03:00:00 7 0 Calma 8 Nordeste 0 -- -- 95
2019-11-17 02:00:00 6.9 2 Nordeste 10 Nordeste 0 -- -- 95
2019-11-17 01:00:00 7 0 Calma 6 Nordeste 0 -- -- 94
2019-11-17 00:00:00 6.9 0 Calma 5 Este 0 -- -- 94
2019-11-16 23:00:00 7.1 0 Calma 4 Nordeste 0 -- -- 93
2019-11-16 22:00:00 7.1 0 Calma 3 Sudeste 0 -- -- 92
2019-11-16 21:00:00 7.3 0 Calma -- -- 0 -- -- 90
2019-11-16 20:00:00 7.5 0 Calma 9 Oeste 0 -- -- 90
2019-11-16 19:00:00 7.6 0 Calma 0 Calma 0 -- -- 90
2019-11-16 18:00:00 8 0 Calma -- -- 0 -- -- 87
2019-11-16 17:00:00 8.3 0 Calma 5 Oeste 0 -- -- 83
2019-11-16 16:00:00 8.5 0 Calma 11 Oeste 0 -- -- 81
2019-11-16 15:00:00 8.8 3 Oeste 15 Oeste 0 -- -- 82
2019-11-16 14:00:00 7.8 0 Calma 8 Sur 0 -- -- 88
2019-11-16 13:00:00 6.6 0 Calma 5 Sur 0 -- -- 95
2019-11-16 12:00:00 6.1 0 Calma 8 Sur 0 -- -- 98
2019-11-16 11:00:00 4.3 0 Calma -- -- 0 -- -- 99
2019-11-16 10:00:00 2.9 0 Calma -- -- 0 -- -- 99
2019-11-16 09:00:00 2 0 Calma -- -- 0 -- -- 99
2019-11-16 08:00:00 1.8 0 Calma -- -- 0 -- -- 99
2019-11-16 07:00:00 1.8 0 Calma -- -- 0 -- -- 99
2019-11-16 06:00:00 0.9 0 Calma -- -- 0 -- -- 99
2019-11-16 05:00:00 1 0 Calma -- -- 0 -- -- 99
2019-11-16 04:00:00 0.6 0 Calma -- -- 0 -- -- 98
2019-11-16 03:00:00 1 0 Calma 6 Sudeste 0 -- -- 98
2019-11-16 02:00:00 1.5 0 Calma -- -- 0 -- -- 97
2019-11-16 01:00:00 2.6 0 Calma 6 Oeste 0 -- -- 96
2019-11-16 00:00:00 3.1 0 Calma 7 Noroeste 0 -- -- 95
2019-11-15 23:00:00 3.7 0 Calma 18 Oeste 0.2 -- -- 94
2019-11-15 22:00:00 4 5 Norte 23 Norte 0.2 -- -- 94
2019-11-15 21:00:00 4.5 5 Noroeste 19 Noroeste 0 -- -- 94
2019-11-15 20:00:00 4.3 0 Calma 29 Oeste 0.2 -- -- 92
2019-11-15 19:00:00 4.4 0 Calma 18 Norte 0.2 -- -- 90
2019-11-15 18:00:00 5.7 5 Noroeste 21 Noroeste 1.4 -- -- 87
2019-11-15 17:00:00 6.8 5 Noroeste 21 Norte 0 -- -- 82
2019-11-15 16:00:00 7.7 4 Noroeste 28 Noroeste 0.9 -- -- 83
2019-11-15 15:00:00 7.8 13 Noroeste 34 Oeste 0.1 -- -- 72
2019-11-15 14:00:00 7 7 Noroeste 21 Norte 0.1 -- -- 80
2019-11-15 13:00:00 6.6 10 Noroeste 24 Noroeste 0.1 -- -- 82
2019-11-15 12:00:00 6.2 2 Nordeste 9 Nordeste 0.2 -- -- 97
2019-11-15 11:00:00 4.8 0 Calma 6 Sudoeste 0.1 -- -- 97
2019-11-15 10:00:00 4 0 Calma 4 Norte 0.4 -- -- 97
2019-11-15 09:00:00 3.4 3 Norte 22 Norte 0.5 -- -- 97
2019-11-15 08:00:00 2.4 0 Calma 8 Norte 0.1 -- -- 96
2019-11-15 07:00:00 2.2 0 Calma 4 Noroeste 0 -- -- 95
2019-11-15 06:00:00 3.2 0 Calma 14 Nordeste 0.1 -- -- 94
2019-11-15 05:00:00 3.7 4 Noroeste 23 Noroeste 0.6 -- -- 94
2019-11-15 04:00:00 3.9 0 Calma 11 Noroeste 0.3 -- -- 94
2019-11-15 03:00:00 3.6 9 Noroeste 23 Norte 0.9 -- -- 92
2019-11-15 02:00:00 4.1 7 Noroeste 24 Norte 0.6 -- -- 92
2019-11-15 01:00:00 3.5 3 Noroeste 14 Noroeste 0 -- -- 91
2019-11-15 00:00:00 3.8 0 Calma 4 Norte 0 -- -- 90
2019-11-14 23:00:00 5.3 0 Calma 18 Norte 0.2 -- -- 84
2019-11-14 22:00:00 5.6 4 Noroeste 26 Oeste 0 -- -- 78
2019-11-14 21:00:00 6 7 Noroeste 28 Noroeste 0 -- -- 81
2019-11-14 20:00:00 6.5 10 Noroeste 31 Norte 0 -- -- 83
2019-11-14 19:00:00 6.2 13 Noroeste 43 Noroeste 0.7 -- -- 86
2019-11-14 18:00:00 6.7 10 Noroeste 39 Noroeste 0.5 -- -- 88
2019-11-14 17:00:00 6.7 19 Noroeste 46 Oeste 2.2 -- -- 87
2019-11-14 16:00:00 8 13 Noroeste 63 Noroeste 0.2 -- -- 83
2019-11-14 15:00:00 8.2 15 Noroeste 57 Oeste 0.3 -- -- 84
2019-11-14 14:00:00 8.4 11 Noroeste 45 Oeste 0.9 -- -- 86
2019-11-14 13:00:00 8.6 18 Noroeste 43 Noroeste 0.8 -- -- 83
2019-11-14 12:00:00 6.4 6 Oeste 24 Oeste 0.8 -- -- 97
2019-11-14 11:00:00 5.6 0 Calma 10 Sur 0.2 -- -- 96
2019-11-14 10:00:00 5 3 Sur 13 Sudeste 1.3 -- -- 95
2019-11-14 09:00:00 4.8 0 Calma 16 Noroeste 0.9 -- -- 92
2019-11-14 08:00:00 4.6 0 Calma 12 Oeste 0 -- -- 92
2019-11-14 07:00:00 5.3 4 Oeste 14 Noroeste 0.5 -- -- 94
2019-11-14 06:00:00 5.2 0 Calma 14 Este 0.2 -- -- 92
2019-11-14 05:00:00 5.5 0 Calma 10 Oeste 0 -- -- 90
2019-11-14 04:00:00 6 2 Oeste 24 Oeste 0 -- -- 88
2019-11-14 03:00:00 6.4 9 Noroeste 27 Noroeste 0.9 -- -- 87
2019-11-14 02:00:00 7.8 11 Noroeste 32 Noroeste 0 -- -- 84
2019-11-14 01:00:00 8.2 12 Noroeste 38 Oeste 0.5 -- -- 87
2019-11-14 00:00:00 9 6 Noroeste 41 Noroeste 0.7 -- -- 90
2019-11-13 23:00:00 9.9 4 Oeste 29 Noroeste 1 -- -- 92
2019-11-13 22:00:00 10.4 6 Oeste 20 Sudoeste 0 -- -- 83
2019-11-13 21:00:00 9.8 0 Calma 14 Sur 0 -- -- 87
2019-11-13 20:00:00 9.9 0 Calma 10 Oeste 0 -- -- 82
2019-11-13 19:00:00 10.2 0 Calma 29 Noroeste 0 -- -- 79
2019-11-13 18:00:00 11.1 7 Oeste 19 Oeste 0 -- -- 73
2019-11-13 17:00:00 12.1 4 Oeste 20 Oeste 0 -- -- 67
2019-11-13 16:00:00 13.4 6 Oeste 18 Noroeste 0 -- -- 63
2019-11-13 15:00:00 13.1 3 Noroeste 15 Noroeste 0 -- -- 69
2019-11-13 14:00:00 13.4 2 Noroeste 18 Noroeste 0 -- -- 69
2019-11-13 13:00:00 13 7 Norte 26 Oeste 0 -- -- 71
2019-11-13 12:00:00 12.9 8 Noroeste 20 Oeste 0 -- -- 80
2019-11-13 11:00:00 11 0 Calma 12 Norte 0 -- -- 91
2019-11-13 10:00:00 10.3 4 Norte 15 Norte 0.1 -- -- 96
2019-11-13 09:00:00 9.6 0 Calma 6 Norte 0 -- -- 96
2019-11-13 08:00:00 10.1 0 Calma 14 Noroeste 0 -- -- 96
2019-11-13 07:00:00 11 0 Calma -- -- 0 -- -- 96
2019-11-13 06:00:00 11.3 0 Calma 4 Sur 0 -- -- 95
2019-11-13 05:00:00 11.6 0 Calma 22 Noroeste 0 -- -- 96
2019-11-13 04:00:00 12.9 9 Noroeste 22 Norte 0.9 -- -- 98
2019-11-13 03:00:00 13.8 0 Calma 17 Noroeste 0.3 -- -- 98
2019-11-13 02:00:00 13.9 2 Oeste 17 Oeste 1.3 -- -- 98
2019-11-13 01:00:00 13.7 0 Calma 17 Oeste 0.1 -- -- 98
2019-11-13 00:00:00 13.5 0 Calma 14 Oeste 1.2 -- -- 98
2019-11-12 23:00:00 12.9 0 Calma 10 Sur 2.4 -- -- 98
2019-11-12 22:00:00 12.5 0 Calma 12 Sur 2.1 -- -- 98
2019-11-12 21:00:00 12.2 2 Sur 12 Sur 1.2 -- -- 98
2019-11-12 20:00:00 11.8 0 Calma 10 Sur 4.2 -- -- 98
2019-11-12 19:00:00 11.3 0 Calma 11 Sur 2.8 -- -- 98
2019-11-12 18:00:00 10.9 2 Sur 14 Sudoeste 2.2 -- -- 98
2019-11-12 17:00:00 10.8 0 Calma 14 Sudeste 1.2 -- -- 98
2019-11-12 16:00:00 10.6 0 Calma 11 Sur 0.9 -- -- 98
2019-11-12 15:00:00 9.6 0 Calma 9 Sur 0.2 -- -- 97
2019-11-12 14:00:00 9.3 0 Calma 8 Sudeste 0.2 -- -- 97
2019-11-12 13:00:00 8.7 0 Calma 3 Sur 0 -- -- 97
2019-11-12 12:00:00 8.1 0 Calma 4 Sudeste 0.4 -- -- 97
2019-11-12 11:00:00 7.7 0 Calma -- -- 0.5 -- -- 97
2019-11-12 10:00:00 7.2 0 Calma -- -- 0 -- -- 97
2019-11-12 09:00:00 6.4 0 Calma -- -- 0 -- -- 97
2019-11-12 08:00:00 6 0 Calma 6 Nordeste 0 -- -- 97
2019-11-12 07:00:00 5.8 0 Calma 4 Nordeste 0 -- -- 97
2019-11-12 06:00:00 5.5 0 Calma -- -- 0 -- -- 97
2019-11-12 05:00:00 5.3 0 Calma -- -- 0 -- -- 97
2019-11-12 04:00:00 5.5 0 Calma -- -- 0 -- -- 97
2019-11-12 03:00:00 5.5 0 Calma -- -- 0 -- -- 96
2019-11-12 02:00:00 5.4 0 Calma 3 Norte 0 -- -- 95
2019-11-12 01:00:00 5.8 0 Calma -- -- 0 -- -- 94
2019-11-12 00:00:00 6.1 0 Calma 4 Nordeste 0 -- -- 94
2019-11-11 23:00:00 6.4 0 Calma -- -- 0 -- -- 93
2019-11-11 22:00:00 6.8 0 Calma 4 Norte 0 -- -- 91
2019-11-11 21:00:00 7.4 0 Calma 7 Este 0 -- -- 88
2019-11-11 20:00:00 8.1 0 Calma 9 Noroeste 0 -- -- 81
2019-11-11 19:00:00 9.2 0 Calma 16 Noroeste 0 -- -- 75
2019-11-11 18:00:00 10.9 6 Noroeste 21 Noroeste 0 -- -- 67
2019-11-11 17:00:00 12.8 5 Norte 27 Norte 0 -- -- 60
2019-11-11 16:00:00 14.4 6 Norte 22 Noroeste 0 -- -- 56
2019-11-11 15:00:00 13.7 8 Norte 23 Noroeste 0 -- -- 60
2019-11-11 14:00:00 13.6 6 Norte 26 Nordeste 0 -- -- 66
2019-11-11 13:00:00 13.1 9 Norte 23 Noroeste 0 -- -- 75
2019-11-11 12:00:00 12.2 3 Norte 21 Norte 0 -- -- 88
2019-11-11 11:00:00 11.2 3 Norte 27 Norte 0 -- -- 95
2019-11-11 10:00:00 11.3 7 Noroeste 26 Norte 0.1 -- -- 99
2019-11-11 09:00:00 8.6 0 Calma -- -- 0 -- -- 98
2019-11-11 08:00:00 8 0 Calma -- -- 0.1 -- -- 98
2019-11-11 07:00:00 7.9 0 Calma -- -- 0 -- -- 98
2019-11-11 06:00:00 7.8 0 Calma 2 Noroeste 0 -- -- 98
2019-11-11 05:00:00 7.6 0 Calma -- -- 0.1 -- -- 98
2019-11-11 04:00:00 7.7 0 Calma -- -- 0.5 -- -- 97
2019-11-11 03:00:00 7.5 0 Calma -- -- 0 -- -- 97
2019-11-11 02:00:00 7.5 0 Calma -- -- 0.2 -- -- 97
2019-11-11 01:00:00 7.3 0 Calma -- -- 0 -- -- 97
2019-11-11 00:00:00 7.4 0 Calma -- -- 0.4 -- -- 97
2019-11-10 23:00:00 7.4 0 Calma -- -- 0.3 -- -- 97
2019-11-10 22:00:00 7.5 0 Calma -- -- 0.6 -- -- 97
2019-11-10 21:00:00 7.7 0 Calma -- -- 0.7 -- -- 96
2019-11-10 20:00:00 7.7 0 Calma 3 Sudoeste 0.8 -- -- 96
2019-11-10 19:00:00 8 0 Calma -- -- 1.1 -- -- 93
2019-11-10 18:00:00 8.1 0 Calma 4 Norte 0.3 -- -- 92
2019-11-10 17:00:00 8.4 0 Calma 5 Norte 0.6 -- -- 90
2019-11-10 16:00:00 8.8 0 Calma 9 Noroeste 0.3 -- -- 89
2019-11-10 15:00:00 8.4 0 Calma 15 Norte 0.4 -- -- 90
2019-11-10 14:00:00 8.5 4 Noroeste 13 Noroeste 0.7 -- -- 91
2019-11-10 13:00:00 8.3 0 Calma 22 Noroeste 1.1 -- -- 90
2019-11-10 12:00:00 8.2 6 Noroeste 25 Noroeste 0.9 -- -- 90
2019-11-10 11:00:00 7.9 4 Noroeste 19 Oeste 0.3 -- -- 97
2019-11-10 10:00:00 7.2 5 Noroeste 18 Noroeste 0.1 -- -- 97
2019-11-10 09:00:00 6.3 0 Calma 8 Oeste 0.1 -- -- 97
2019-11-10 08:00:00 5.5 0 Calma -- -- 0 -- -- 96
2019-11-10 07:00:00 6 0 Calma 6 Este 0 -- -- 96
2019-11-10 06:00:00 6.3 0 Calma 8 Sudoeste 0 -- -- 96
2019-11-10 05:00:00 6.6 0 Calma 6 Oeste 0.2 -- -- 96
2019-11-10 04:00:00 6.7 0 Calma 0 Calma 0 -- -- 94
2019-11-10 03:00:00 7.1 0 Calma 0 Calma 0 -- -- 94
2019-11-10 02:00:00 7.5 0 Calma 6 Oeste 0.1 -- -- 93
2019-11-10 01:00:00 7.7 0 Calma 9 Noroeste 0 -- -- 90
2019-11-10 00:00:00 8.2 0 Calma 21 Noroeste 0 -- -- 84